Tracking 20623 objects as of 3-Apr-2020
HD Live streaming from Space Station
objects crossing your sky now

LEMUR 2 GREGROBINSON

Track LEMUR 2 GREGROBINSON now!
10-day predictions
LEMUR 2 GREGROBINSON is classified as:


NORAD ID: 44411
Int'l Code: 2019-038AB
Perigee: 518.9 km
Apogee: 553.2 km
Inclination: 97.5 °
Period: 95.2 minutes
Semi major axis: 6907 km
RCS: Unknown
Launch date: July 5, 2019
Source: United States (US)
Launch site: ()
aabbcc
Your satellite tracking list
Your tracking list is empty




NASA's NSSDC Master Catalog

Two Line Element Set (TLE):
1 44411U 19038AB  20094.16301702  .00002253  00000-0  13272-3 0  9990
2 44411  97.5300  56.5234 0024811  34.0779 326.2038 15.12381381 40877
Source of the keplerian elements: AFSPC